This demonstration page uses our WeatherBlox Daily Observations layout. Learn more.

Left ArrowRight Arrow

Hourly Observations for January 17, 2018

Temp ( °F °C ) Dew Point ( °F °C ) Humidity (%) Winds ( mph kmh ) Pressure ( in mb ) Visibility ( mi km ) Precip ( " mm )
12:56 am 00:56 Clear 5 -15 -2 -18.9 72 72 SSW 13 20 30.63 1037 10 16 0.00 0.00
1:56 am 01:56 Clear 5 -15 -1 -18.3 76 76 SSW 12 19 30.60 1036 10 16 0.00 0.00
2:56 am 02:56 Clear 5 -15 -1 -18.3 76 76 SSW 12 19 30.60 1036 10 16 0.00 0.00
3:56 am 03:56 Clear 6 -14.4 -1 -18.3 73 73 SSW 16 26 30.58 1036 10 16 0.00 0.00
4:56 am 04:56 Clear 6 -14.4 -1 -18.3 73 73 SSW 13 20 30.56 1035 10 16 0.00 0.00
5:56 am 05:56 Clear 6 -14.4 -1 -18.3 73 73 SSW 12 19 30.56 1035 10 16 0.00 0.00
6:56 am 06:56 Clear 6 -14.4 -1 -18.3 73 73 SW 12 19 30.54 1034 10 16 0.00 0.00
7:56 am 07:56 Clear 5 -15 -2 -18.9 72 72 SW 10 17 30.54 1034 10 16 0.00 0.00
8:56 am 08:56 Sunny 7 -13.9 -1 -18.3 70 70 SSW 10 17 30.55 1035 10 16 0.00 0.00
9:56 am 09:56 Sunny 12 -11.1 1 -17.2 61 61 SW 15 24 30.54 1034 10 16 0.00 0.00
10:56 am 10:56 Sunny 16 -8.9 4 -15.6 59 59 SW 15 24 30.54 1034 10 16 0.00 0.00
11:56 am 11:56 Sunny 20 -6.7 8 -13.3 60 60 SSW 14 22 30.52 1033 10 16 0.00 0.00
12:56 pm 12:56 Sunny 23 -5 11 -11.7 60 60 SSW 13 20 30.47 1032 10 16 0.00 0.00
1:56 pm 13:56 Sunny 27 -2.8 14 -10 58 58 SSW 13 20 30.44 1031 10 16 0.00 0.00
2:56 pm 14:56 Sunny 29 -1.7 16 -8.9 58 58 SSW 14 22 30.40 1030 10 16 0.00 0.00
3:56 pm 15:56 Sunny 31 -0.6 18 -7.8 59 59 SSW 9 15 30.40 1030 10 16 0.00 0.00
4:56 pm 16:56 Sunny 30 -1.1 18 -7.8 61 61 SSW 9 15 30.41 1030 10 16 0.00 0.00
5:56 pm 17:56 Clear 26 -3.3 16 -8.9 66 66 SSW 10 17 30.41 1030 10 16 0.00 0.00
6:56 pm 18:56 Clear 25 -3.9 15 -9.4 66 66 SSW 12 19 30.40 1030 10 16 0.00 0.00
7:56 pm 19:56 Clear 24 -4.4 14 -10 65 65 SW 9 15 30.40 1030 10 16 0.00 0.00
8:56 pm 20:56 Clear 23 -5 14 -10 68 68 SW 15 24 30.37 1028 10 16 0.00 0.00
9:56 pm 21:56 Clear 24 -4.4 14 -10 65 65 SW 10 17 30.34 1028 10 16 0.00 0.00
10:56 pm 22:56 Clear 21 -6.1 13 -10.6 71 71 WSW 8 13 30.33 1027 10 16 0.00 0.00
11:56 pm 23:56 Clear 20 -6.7 13 -10.6 74 74 SW 10 17 30.30 1026 10 16 0.00 0.00

Powered by AerisWeather